TimeCDT,TemperatureF,Dew PointF,Humidity,Sea Level PressureIn,VisibilityMPH,Wind Direction,Wind SpeedMPH,Gust SpeedMPH,PrecipitationIn,Events,Conditions,WindDirDegrees,DateUTC
12:14 AM,6.8,1.4,79,30.27,10.0,North,6.9,-,N/A,,Clear,360,2013-03-17 05:14:00
12:34 AM,6.8,1.4,79,30.28,10.0,North,8.1,-,N/A,,Clear,360,2013-03-17 05:34:00
12:53 AM,6.8,1.4,79,30.28,10.0,North,6.9,-,N/A,,Clear,350,2013-03-17 05:53:00
1:14 AM,6.8,1.4,79,30.27,10.0,North,4.6,-,N/A,,Clear,360,2013-03-17 06:14:00
1:34 AM,6.8,1.4,79,30.27,10.0,NNE,4.6,-,N/A,,Clear,20,2013-03-17 06:34:00
1:53 AM,6.8,1.4,79,30.26,10.0,North,4.6,-,N/A,,Clear,10,2013-03-17 06:53:00
2:14 AM,6.8,1.4,79,30.25,10.0,NNE,4.6,-,N/A,,Clear,30,2013-03-17 07:14:00
2:33 AM,6.8,1.4,79,30.24,10.0,NNE,5.8,-,N/A,,Clear,30,2013-03-17 07:33:00
2:54 AM,5.0,-0.4,78,30.24,10.0,NE,3.5,-,N/A,,Clear,50,2013-03-17 07:54:00
3:14 AM,5.0,-0.4,78,30.24,10.0,ENE,3.5,-,N/A,,Clear,70,2013-03-17 08:14:00
3:33 AM,5.0,-0.4,78,30.24,10.0,ENE,3.5,-,N/A,,Clear,60,2013-03-17 08:33:00
3:54 AM,5.0,-0.4,78,30.23,10.0,East,3.5,-,N/A,,Mostly Cloudy,80,2013-03-17 08:54:00
4:14 AM,5.0,-0.4,78,30.23,10.0,East,4.6,-,N/A,,Overcast,80,2013-03-17 09:14:00
4:33 AM,5.0,-0.4,78,30.22,10.0,Calm,Calm,-,N/A,,Mostly Cloudy,0,2013-03-17 09:33:00
5:14 AM,6.8,-0.4,72,30.21,10.0,East,6.9,-,N/A,,Mostly Cloudy,90,2013-03-17 10:14:00
5:33 AM,6.8,-0.4,72,30.20,10.0,East,8.1,-,N/A,,Scattered Clouds,90,2013-03-17 10:33:00
5:54 AM,6.8,-0.4,72,30.19,10.0,East,6.9,-,N/A,,Mostly Cloudy,100,2013-03-17 10:54:00
6:14 AM,6.8,-0.4,72,30.19,10.0,East,8.1,-,N/A,,Mostly Cloudy,100,2013-03-17 11:14:00
6:33 AM,6.8,-0.4,72,30.18,10.0,ESE,8.1,-,N/A,,Mostly Cloudy,110,2013-03-17 11:33:00
6:54 AM,6.8,-0.4,72,30.17,10.0,ESE,8.1,-,N/A,,Overcast,110,2013-03-17 11:54:00
7:14 AM,6.8,1.4,79,30.17,10.0,ESE,6.9,-,N/A,,Overcast,110,2013-03-17 12:14:00
7:33 AM,6.8,1.4,79,30.16,10.0,ESE,9.2,-,N/A,,Overcast,120,2013-03-17 12:33:00
7:54 AM,8.6,1.4,73,30.15,10.0,ESE,11.5,-,N/A,,Overcast,120,2013-03-17 12:54:00
8:14 AM,8.6,1.4,73,30.15,10.0,SE,12.7,-,N/A,,Overcast,130,2013-03-17 13:14:00
8:33 AM,8.6,1.4,73,30.15,10.0,SE,13.8,-,N/A,,Overcast,140,2013-03-17 13:33:00
8:54 AM,8.6,1.4,73,30.14,10.0,SE,15.0,-,N/A,,Overcast,140,2013-03-17 13:54:00
9:14 AM,8.6,1.4,73,30.14,10.0,SE,17.3,-,N/A,,Mostly Cloudy,140,2013-03-17 14:14:00
9:33 AM,8.6,3.2,79,30.12,10.0,SE,17.3,-,N/A,,Mostly Cloudy,140,2013-03-17 14:33:00
9:54 AM,10.4,3.2,73,30.12,10.0,SE,16.1,-,N/A,,Mostly Cloudy,140,2013-03-17 14:54:00
10:14 AM,10.4,3.2,73,30.10,10.0,SE,17.3,-,N/A,,Scattered Clouds,140,2013-03-17 15:14:00
10:33 AM,10.4,3.2,73,30.10,10.0,SSE,17.3,-,N/A,,Scattered Clouds,150,2013-03-17 15:33:00
10:54 AM,12.2,5.0,73,30.09,7.0,SSE,17.3,-,N/A,Snow,Light Snow,150,2013-03-17 15:54:00
11:14 AM,12.2,6.8,79,30.08,5.0,SE,19.6,-,N/A,Snow,Light Snow,140,2013-03-17 16:14:00
11:33 AM,12.2,8.6,85,30.08,7.0,SSE,15.0,-,N/A,Snow,Light Snow,150,2013-03-17 16:33:00
11:54 AM,14.0,8.6,79,30.05,7.0,SE,19.6,-,N/A,Snow,Light Snow,140,2013-03-17 16:54:00
12:13 PM,15.8,10.4,79,30.04,5.0,SE,19.6,-,N/A,,Haze,140,2013-03-17 17:13:00
12:33 PM,17.6,10.4,73,30.02,10.0,SE,21.9,-,N/A,,Mostly Cloudy,140,2013-03-17 17:33:00
12:53 PM,17.6,12.2,79,30.01,10.0,SE,23.0,-,N/A,,Mostly Cloudy,140,2013-03-17 17:53:00
1:13 PM,19.4,12.2,74,29.99,10.0,SE,19.6,-,N/A,,Mostly Cloudy,140,2013-03-17 18:13:00
1:34 PM,21.2,15.8,80,29.98,10.0,SE,20.7,-,N/A,,Mostly Cloudy,140,2013-03-17 18:34:00
1:53 PM,23.0,15.8,74,29.97,10.0,SSE,23.0,-,N/A,,Mostly Cloudy,150,2013-03-17 18:53:00
2:13 PM,24.8,15.8,69,29.96,10.0,SE,21.9,-,N/A,,Mostly Cloudy,140,2013-03-17 19:13:00
2:34 PM,24.8,17.6,74,29.94,10.0,SE,21.9,-,N/A,,Overcast,140,2013-03-17 19:34:00
3:13 PM,26.6,17.6,69,29.90,10.0,SE,24.2,-,N/A,,Mostly Cloudy,140,2013-03-17 20:13:00
3:34 PM,26.6,17.6,69,29.88,10.0,SE,23.0,27.6,N/A,,Mostly Cloudy,140,2013-03-17 20:34:00
3:54 PM,26.6,17.6,69,29.87,10.0,SE,25.3,-,N/A,,Mostly Cloudy,140,2013-03-17 20:54:00
4:13 PM,26.6,19.4,74,29.85,10.0,SE,25.3,-,N/A,,Overcast,140,2013-03-17 21:13:00
4:34 PM,26.6,19.4,74,29.83,10.0,SE,26.5,29.9,N/A,,Overcast,130,2013-03-17 21:34:00
4:54 PM,26.6,19.4,74,29.83,10.0,SE,21.9,-,N/A,,Mostly Cloudy,130,2013-03-17 21:54:00
5:13 PM,28.4,21.2,74,29.82,10.0,SE,23.0,-,N/A,,Mostly Cloudy,130,2013-03-17 22:13:00
5:33 PM,28.4,21.2,74,29.81,10.0,SE,21.9,26.5,N/A,,Scattered Clouds,130,2013-03-17 22:33:00
5:54 PM,28.4,21.2,74,29.80,10.0,SE,24.2,-,N/A,,Scattered Clouds,140,2013-03-17 22:54:00
6:13 PM,28.4,21.2,74,29.80,10.0,SSE,26.5,-,N/A,,Clear,150,2013-03-17 23:13:00
6:34 PM,28.4,21.2,74,29.79,10.0,SSE,25.3,29.9,N/A,,Clear,150,2013-03-17 23:34:00
6:54 PM,28.4,23.0,80,29.77,10.0,SE,26.5,-,N/A,,Scattered Clouds,130,2013-03-17 23:54:00
7:13 PM,28.4,24.8,86,29.77,7.0,SE,24.2,-,N/A,Snow,Light Snow,140,2013-03-18 00:13:00
7:34 PM,28.4,23.0,80,29.76,10.0,SE,29.9,-,N/A,,Scattered Clouds,140,2013-03-18 00:34:00
7:54 PM,28.4,24.8,86,29.75,10.0,SSE,26.5,-,N/A,Snow,Light Snow,150,2013-03-18 00:54:00
8:13 PM,28.4,24.8,86,29.73,1.8,SE,32.2,36.8,N/A,Snow,Light Snow,140,2013-03-18 01:13:00
8:34 PM,28.4,24.8,86,29.71,4.0,SE,29.9,-,N/A,Snow,Light Snow,140,2013-03-18 01:34:00
8:53 PM,28.4,24.8,86,29.71,1.5,SE,31.1,36.8,N/A,Snow,Light Snow,140,2013-03-18 01:53:00
9:14 PM,28.4,26.6,93,29.69,1.0,SE,32.2,-,N/A,Snow,Snow,140,2013-03-18 02:14:00
9:33 PM,28.4,26.6,93,29.68,0.8,SE,29.9,36.8,N/A,Snow,Snow,140,2013-03-18 02:33:00
9:53 PM,28.4,26.6,93,29.67,1.0,SE,29.9,-,N/A,Snow,Light Snow,140,2013-03-18 02:53:00
10:14 PM,28.4,26.6,93,29.66,1.0,SSE,32.2,35.7,N/A,Snow,Light Snow,150,2013-03-18 03:14:00
10:33 PM,28.4,26.6,93,29.64,1.0,SSE,31.1,38.0,N/A,Snow,Snow,150,2013-03-18 03:33:00
10:53 PM,28.4,26.6,93,29.64,2.0,SSE,28.8,34.5,N/A,,Mostly Cloudy,150,2013-03-18 03:53:00
11:14 PM,28.4,26.6,93,29.63,1.2,SSE,26.5,34.5,N/A,Snow,Light Snow,150,2013-03-18 04:14:00
11:33 PM,30.2,26.6,86,29.62,1.2,SSE,29.9,33.4,N/A,Snow,Light Snow,150,2013-03-18 04:33:00
11:54 PM,30.2,28.4,93,29.61,2.5,SSE,27.6,34.5,N/A,,Overcast,160,2013-03-18 04:54:00